Temp
-14 -13 -14 -14 -14 -14 -14 -14 -14 -14 -14 -14 -14 -14 -14 -14 -14 -14 -13 -13 -13 -14 -14 -14 -14 -14 -14 -15 -15 -15 -15 -15 -15 -16 -16 -16 -16 -17 -17 -17 -17 -17 -17
-14 -13 -14 -14 -14 -14 -14 -14 -14 -14 -14 -14 -14 -14 -14 -14 -14 -14 -14 -14 -14 -14 -14 -14 -14 -14 -14 -14 -15 -15 -15 -16 -15 -16 -16 -16 -17 -17 -17 -17 -16 -16 -16
-14 -14 -14 -14 -14 -14 -14 -13 -13 -13 -14 -14 -14 -14 -14 -14 -14 -14 -14 -14 -14 -14 -14 -14 -14 -14 -14 -15 -15 -15 -15 -15 -15 -15 -16 -17 -17 -17 -17 -17 -16 -17 -17
-14 -14 -14 -14 -15 -14 -14 -14 -14 -14 -14 -14 -14 -14 -14 -14 -15 -15 -14 -14 -15 -15 -15 -15 -15 -15 -15 -15 -15 -15 -15 -15 -15 -15 -15 -16 -16 -16 -16 -16 -17 -17 -17
-14 -14 -14 -15 -15 -15 -15 -14 -14 -14 -14 -14 -14 -14 -14 -14 -14 -15 -15 -15 -15 -15 -15 -15 -15 -15 -15 -16 -16 -16 -16 -16 -16 -15 -15 -15 -16 -16 -16 -17 -16 -17 -17
-14 -14 -14 -15 -16 -15 -15 -15 -15 -15 -15 -15 -15 -15 -15 -15 -15 -15 -15 -15 -15 -15 -15 -15 -15 -15 -16 -16 -16 -16 -16 -16 -16 -15 -15 -15 -15 -16 -17 -17 -17 -17 -17
-15 -15 -15 -15 -16 -15 -15 -15 -15 -15 -15 -15 -15 -15 -15 -15 -15 -15 -15 -15 -15 -15 -15 -16 -15 -16 -16 -16 -16 -16 -16 -16 -16 -16 -16 -16 -15 -16 -16 -16 -17 -17 -17
-15 -15 -15 -15 -15 -15 -16 -15 -15 -15 -15 -15 -15 -15 -15 -15 -15 -15 -15 -15 -15 -15 -15 -16 -16 -16 -16 -16 -17 -16 -17 -17 -17 -17 -16 -16 -16 -16 -16 -16 -16 -17 -16
-15 -16 -16 -16 -16 -15 -15 -15 -15 -15 -16 -16 -15 -15 -15 -15 -15 -15 -15 -15 -15 -15 -15 -15 -15 -16 -16 -16 -16 -16 -16 -17 -17 -17 -16 -16 -16 -16 -16 -17 -17 -17 -17
-16 -16 -16 -16 -16 -16 -16 -16 -16 -15 -15 -15 -15 -15 -15 -15 -15 -15 -15 -15 -15 -16 -16 -16 -15 -15 -16 -16 -16 -16 -16 -17 -17 -17 -17 -16 -16 -16 -16 -17 -17 -17 -17
-16 -16 -16 -17 -17 -17 -16 -16 -17 -17 -17 -17 -17 -17 -17 -16 -16 -16 -16 -16 -15 -16 -16 -16 -16 -16 -16 -16 -16 -16 -16 -15 -16 -17 -17 -17 -17 -16 -16 -16 -17 -17 -17
-17 -17 -17 -17 -17 -16 -16 -16 -16 -16 -16 -16 -16 -16 -16 -16 -16 -16 -16 -17 -17 -17 -17 -16 -17 -15 -16 -16 -16 -16 -16 -17 -16 -16 -16 -16 -17 -16 -16 -16 -16 -17 -17
-18 -18 -18 -18 -17 -16 -16 -16 -16 -16 -17 -17 -17 -17 -17 -17 -17 -17 -17 -17 -17 -17 -17 -17 -17 -17 -17 -17 -17 -16 -17 -17 -16 -17 -17 -17 -17 -17 -17 -17 -17 -17 -17
-18 -18 -18 -17 -17 -17 -17 -17 -17 -17 -18 -18 -18 -18 -18 -18 -18 -19 -19 -19 -19 -19 -19 -19 -19 -18 -18 -18 -17 -17 -17 -19 -17 -17 -17 -17 -18 -17 -17 -18 -18 -17 -17
-18 -18 -18 -18 -19 -18 -19 -19 -19 -19 -19 -19 -19 -19 -19 -19 -19 -19 -19 -19 -19 -19 -19 -19 -19 -19 -19 -19 -19 -19 -18 -18 -19 -18 -19 -19 -18 -18 -18 -18 -18 -18 -18
-19 -19 -19 -19 -19 -19 -19 -19 -20 -20 -20 -20 -20 -20 -20 -20 -20 -20 -19 -19 -19 -19 -19 -19 -19 -19 -19 -19 -19 -19 -19 -19 -19 -19 -19 -19 -19 -19 -19 -19 -18 -18 -18
-20 -20 -20 -20 -20 -20 -20 -20 -20 -20 -20 -20 -20 -20 -20 -20 -20 -20 -20 -20 -20 -20 -20 -20 -19 -19 -19 -20 -20 -20 -20 -20 -20 -20 -20 -20 -20 -20 -21 -21 -21 -21 -21
-21 -21 -21 -21 -20 -20 -20 -20 -20 -20 -20 -20 -20 -20 -20 -20 -20 -20 -20 -20 -20 -20 -20 -20 -20 -20 -20 -21 -21 -22 -22 -22 -22 -22 -22 -22 -21 -22 -22 -22 -22 -22 -22
-21 -21 -21 -21 -21 -21 -21 -21 -21 -21 -21 -21 -20 -20 -20 -20 -20 -20 -20 -20 -20 -21 -22 -22 -23 -23 -23 -23 -23 -23 -23 -23 -23 -23 -23 -23 -23 -23 -23 -23 -23 -23 -23
-21 -21 -21 -21 -21 -21 -21 -21 -21 -21 -21 -21 -21 -21 -21 -21 -21 -22 -22 -23 -24 -25 -25 -25 -25 -24 -24 -24 -24 -24 -24 -24 -24 -24 -24 -24 -23 -23 -23 -24 -24 -24 -24
-22 -22 -22 -22 -22 -22 -22 -22 -22 -22 -22 -22 -22 -22 -23 -24 -24 -24 -24 -24 -25 -25 -25 -25 -24 -24 -24 -24 -24 -25 -25 -24 -24 -24 -24 -24 -24 -24 -25 -25 -25 -25 -25
-23 -23 -23 -22 -22 -22 -22 -23 -23 -23 -24 -24 -24 -25 -25 -25 -25 -25 -25 -25 -25 -25 -26 -25 -25 -25 -25 -25 -25 -25 -25 -25 -25 -25 -25 -25 -25 -25 -26 -26 -25 -25 -25
-24 -23 -23 -23 -24 -24 -24 -24 -24 -25 -25 -25 -25 -25 -25 -25 -25 -25 -25 -25 -25 -25 -26 -26 -26 -26 -26 -26 -26 -26 -26 -26 -26 -26 -26 -26 -26 -26 -26 -26 -26 -26 -26
-24 -25 -25 -25 -25 -25 -25 -25 -25 -25 -25 -26 -26 -26 -26 -26 -26 -26 -26 -26 -26 -27 -27 -27 -27 -27 -27 -27 -27 -27 -27 -27 -27 -27 -27 -27 -27 -27 -27 -27 -27 -28 -29
-25 -25 -25 -25 -25 -25 -25 -25 -26 -26 -26 -26 -26 -27 -27 -27 -28 -28 -28 -28 -28 -28 -28 -28 -28 -28 -28 -28 -28 -28 -28 -28 -28 -28 -28 -28 -28 -29 -29 -30 -31 -31 -32
-26 -26 -26 -26 -26 -26 -26 -26 -27 -27 -28 -28 -28 -28 -28 -29 -29 -29 -29 -29 -29 -29 -29 -29 -29 -29 -29 -29 -28 -28 -28 -29 -29 -29 -30 -31 -31 -32 -32 -32 -32 -32 -33
Height
5676 5678 5681 5684 5686 5687 5687 5687 5688 5688 5688 5689 5690 5691 5692 5692 5692 5691 5691 5693 5694 5697 5699 5699 5699 5698 5699 5700 5702 5704 5705 5705 5706 5709 5709 5709 5709 5710 5710 5710 5710 5710 5711
5670 5673 5675 5678 5681 5682 5682 5683 5683 5684 5685 5686 5687 5687 5687 5687 5688 5690 5691 5692 5693 5693 5694 5695 5694 5694 5696 5696 5696 5698 5699 5699 5698 5702 5701 5700 5701 5702 5701 5701 5702 5701 5702
5664 5666 5669 5671 5673 5675 5677 5678 5679 5680 5681 5682 5682 5683 5683 5684 5684 5685 5685 5686 5686 5687 5688 5689 5688 5691 5691 5690 5691 5691 5692 5691 5690 5689 5693 5693 5693 5693 5692 5691 5692 5692 5692
5658 5661 5662 5663 5665 5667 5670 5673 5675 5676 5676 5676 5677 5677 5678 5679 5679 5680 5680 5680 5680 5680 5681 5681 5682 5684 5684 5683 5683 5684 5682 5681 5680 5679 5679 5682 5681 5682 5680 5681 5680 5679 5679
5649 5651 5654 5657 5659 5662 5663 5664 5667 5669 5669 5670 5671 5672 5673 5675 5674 5673 5673 5673 5674 5673 5674 5675 5675 5675 5674 5673 5674 5676 5674 5673 5672 5670 5668 5669 5670 5669 5670 5670 5666 5667 5665
5643 5644 5646 5650 5652 5654 5656 5657 5658 5659 5661 5662 5664 5665 5666 5667 5667 5666 5666 5665 5664 5665 5667 5667 5667 5667 5668 5666 5666 5666 5663 5661 5661 5660 5659 5657 5658 5659 5658 5656 5654 5652 5651
5636 5638 5640 5642 5644 5646 5648 5650 5650 5651 5653 5654 5656 5656 5657 5657 5657 5656 5655 5655 5656 5658 5659 5660 5660 5660 5659 5659 5658 5655 5653 5652 5652 5650 5645 5645 5643 5643 5641 5640 5639 5638 5636
5628 5631 5633 5634 5636 5638 5640 5642 5643 5644 5644 5645 5646 5647 5648 5649 5647 5647 5648 5647 5647 5647 5648 5648 5647 5648 5647 5645 5644 5641 5641 5640 5638 5636 5634 5632 5630 5631 5628 5625 5622 5620 5618
5621 5622 5624 5626 5628 5629 5631 5633 5635 5636 5637 5637 5638 5637 5638 5637 5639 5639 5638 5636 5635 5636 5637 5637 5635 5634 5634 5633 5631 5629 5627 5626 5625 5621 5617 5615 5614 5612 5610 5608 5606 5604 5600
5612 5614 5615 5616 5618 5620 5621 5622 5622 5623 5623 5623 5623 5625 5625 5625 5626 5627 5625 5624 5624 5624 5622 5621 5623 5619 5615 5617 5615 5614 5612 5609 5603 5601 5601 5598 5597 5597 5596 5592 5590 5586 5582
5602 5605 5607 5608 5608 5609 5610 5611 5612 5612 5612 5612 5611 5611 5611 5611 5612 5611 5609 5608 5609 5610 5610 5607 5606 5607 5606 5605 5602 5598 5598 5589 5585 5585 5581 5580 5578 5577 5575 5573 5571 5567 5564
5590 5593 5595 5596 5598 5598 5598 5599 5600 5600 5600 5599 5600 5599 5598 5599 5598 5597 5596 5595 5594 5592 5591 5589 5588 5590 5588 5582 5578 5574 5575 5573 5569 5568 5564 5559 5555 5553 5553 5551 5547 5546 5544
5581 5582 5584 5585 5584 5586 5586 5586 5586 5584 5584 5584 5584 5584 5584 5583 5582 5581 5579 5578 5576 5575 5573 5571 5570 5569 5569 5566 5565 5560 5559 5556 5550 5547 5543 5539 5535 5533 5532 5529 5526 5522 5520
5569 5570 5571 5572 5572 5571 5571 5571 5571 5570 5570 5569 5568 5568 5567 5567 5565 5564 5563 5563 5561 5560 5558 5556 5554 5552 5549 5547 5544 5541 5538 5532 5529 5525 5521 5518 5514 5512 5509 5505 5503 5500 5496
5557 5557 5558 5557 5557 5558 5558 5559 5559 5558 5558 5557 5556 5555 5555 5554 5552 5551 5549 5547 5545 5543 5541 5539 5537 5534 5532 5529 5525 5521 5518 5512 5508 5504 5500 5496 5492 5488 5484 5483 5481 5478 5475
5546 5545 5545 5546 5546 5546 5545 5546 5545 5545 5544 5543 5542 5541 5540 5538 5537 5535 5533 5530 5527 5525 5522 5520 5517 5514 5511 5508 5505 5501 5497 5493 5489 5485 5479 5475 5471 5466 5462 5459 5458 5453 5451
5536 5536 5536 5535 5535 5534 5533 5533 5532 5531 5530 5529 5526 5523 5521 5518 5516 5514 5512 5509 5506 5504 5500 5498 5494 5491 5488 5485 5482 5478 5475 5472 5468 5464 5460 5456 5453 5448 5444 5439 5434 5433 5431
5525 5524 5522 5521 5520 5520 5519 5518 5516 5515 5514 5512 5510 5508 5506 5503 5500 5496 5492 5489 5485 5481 5478 5475 5471 5468 5465 5462 5459 5457 5454 5452 5448 5446 5443 5440 5437 5434 5429 5426 5422 5417 5414
5509 5508 5507 5506 5505 5504 5502 5501 5500 5498 5497 5495 5493 5490 5487 5484 5481 5477 5473 5469 5464 5459 5455 5452 5450 5447 5444 5442 5440 5439 5437 5435 5433 5430 5427 5424 5421 5417 5413 5409 5405 5401 5397
5494 5493 5492 5490 5489 5488 5486 5485 5483 5481 5479 5476 5473 5470 5466 5463 5458 5454 5450 5445 5442 5439 5437 5436 5434 5432 5429 5427 5425 5422 5420 5418 5416 5414 5411 5407 5404 5401 5397 5393 5389 5385 5380
5477 5476 5475 5473 5472 5470 5468 5467 5464 5461 5459 5456 5453 5450 5446 5443 5440 5437 5433 5430 5427 5424 5422 5421 5418 5416 5414 5413 5410 5407 5404 5401 5399 5396 5394 5390 5387 5384 5380 5376 5372 5367 5362
5460 5459 5457 5455 5453 5451 5449 5447 5445 5443 5440 5438 5435 5432 5430 5427 5424 5422 5419 5415 5413 5411 5408 5406 5404 5402 5399 5397 5394 5391 5388 5385 5382 5379 5376 5372 5369 5366 5362 5358 5352 5348 5343
5442 5440 5438 5436 5434 5433 5431 5429 5428 5426 5423 5421 5418 5415 5413 5411 5409 5406 5404 5401 5398 5396 5393 5391 5388 5386 5383 5380 5377 5374 5371 5368 5365 5362 5359 5355 5351 5348 5343 5338 5334 5329 5324
5423 5421 5420 5418 5416 5415 5413 5412 5410 5408 5406 5403 5400 5397 5395 5393 5392 5390 5387 5385 5382 5380 5377 5374 5372 5369 5366 5363 5360 5357 5354 5351 5348 5344 5340 5337 5333 5329 5324 5320 5315 5310 5305
5405 5403 5402 5400 5399 5396 5394 5393 5391 5389 5387 5385 5383 5381 5379 5377 5375 5373 5370 5368 5366 5363 5361 5358 5355 5353 5349 5346 5343 5340 5337 5333 5329 5326 5322 5317 5313 5309 5305 5301 5298 5294 5290
5387 5385 5384 5382 5380 5378 5377 5375 5373 5371 5370 5368 5367 5365 5362 5360 5358 5356 5353 5351 5348 5346 5344 5341 5338 5335 5332 5328 5324 5321 5317 5313 5310 5306 5302 5298 5295 5292 5289 5286 5282 5279 5275
Wind_Speed
24 26 27 25 21 21 18 16 13 11 10 9 10 10 9 9 8 8 9 11 14 18 21 20 19 19 20 22 25 27 28 29 30 32 35 36 39 37 37 42 41 43 42
24 25 26 27 23 23 23 21 19 16 13 12 13 13 12 12 12 13 13 15 16 17 18 18 20 21 21 22 24 26 27 29 32 30 34 36 39 41 42 44 44 45 47
26 26 27 26 25 26 26 25 24 22 19 17 16 16 16 17 18 18 18 19 20 20 21 22 23 23 24 24 25 26 28 31 34 36 35 39 42 44 46 48 48 49 50
27 25 28 28 27 27 28 27 26 25 26 24 23 22 21 20 20 23 23 23 24 25 26 25 25 25 26 29 31 31 33 35 36 39 39 39 42 43 47 47 48 51 52
33 31 31 29 28 28 29 29 28 27 29 29 28 28 27 25 27 28 27 26 28 29 29 30 31 32 32 33 34 33 37 41 42 45 47 46 45 46 45 45 49 50 53
31 33 33 31 31 33 34 32 32 33 33 33 32 32 32 32 32 34 34 34 34 34 34 35 36 36 35 37 39 39 42 41 41 44 46 47 48 50 51 53 54 54 54
27 22 24 25 31 40 38 38 37 38 37 36 37 37 36 38 38 38 39 39 40 39 39 40 42 42 42 43 41 43 44 45 46 46 48 47 46 46 50 53 54 55 56
30 29 28 27 28 28 33 37 40 39 38 38 40 40 37 34 36 37 37 40 42 44 45 44 45 45 47 47 48 49 49 50 51 54 53 54 53 52 50 50 52 55 57
36 36 36 30 30 32 33 35 37 39 41 43 45 43 43 44 42 42 44 46 49 48 48 48 49 50 51 51 51 53 54 55 56 57 60 59 59 58 58 57 56 55 56
42 40 39 37 37 38 39 42 44 46 48 49 50 49 45 47 48 48 48 50 55 56 59 59 48 47 56 53 57 55 55 60 63 63 64 67 64 65 66 64 67 66 62
48 46 43 37 39 43 46 47 49 49 49 49 50 51 51 53 53 51 51 50 54 55 55 54 51 56 61 64 64 66 59 64 65 71 71 72 71 75 73 75 73 72 74
39 33 34 34 37 38 41 43 47 49 50 51 52 51 52 52 52 53 53 55 61 62 64 61 63 52 61 62 59 53 55 67 61 71 75 73 79 72 72 80 79 77 84
34 34 37 39 38 39 41 44 46 46 46 48 49 53 56 56 55 54 53 52 51 51 53 56 61 64 65 62 67 71 72 75 72 78 75 71 69 78 76 73 77 76 82
40 39 39 42 44 42 40 40 42 43 45 46 46 46 46 46 46 46 46 47 47 47 48 49 52 54 58 60 63 65 70 69 72 78 83 86 84 80 76 67 68 77 75
42 43 43 39 37 39 38 38 39 39 41 43 44 46 46 47 48 49 50 52 53 54 54 55 56 56 57 58 60 62 64 68 65 68 72 79 78 79 80 70 72 70 72
35 38 39 40 41 41 43 43 43 43 45 47 48 49 51 52 54 55 57 58 60 60 61 61 62 63 63 63 64 64 64 66 66 68 66 69 69 71 70 72 76 68 69
36 37 39 41 43 45 47 49 51 51 51 51 53 55 57 59 61 63 64 66 68 69 70 71 72 72 72 71 70 68 65 63 61 59 60 62 63 63 57 52 50 54 53
40 43 45 47 49 52 53 55 55 55 56 56 57 58 61 64 67 70 72 74 77 79 80 80 80 79 76 72 66 60 57 58 58 56 58 60 60 57 54 53 53 52 53
47 49 50 53 56 57 58 58 59 60 61 63 65 68 71 73 75 77 79 81 81 79 74 69 65 62 60 56 54 52 52 51 51 51 51 52 52 52 53 54 56 58 59
51 53 54 55 57 59 60 62 64 66 68 70 72 74 75 75 74 73 67 62 57 53 54 54 55 51 48 49 47 47 48 51 53 53 53 53 54 56 57 57 58 59 61
55 57 59 59 60 61 63 64 66 67 68 67 66 63 61 57 54 51 52 52 49 50 54 56 54 53 51 52 51 51 51 52 53 54 55 54 55 55 56 58 59 61 63
57 58 60 62 63 63 63 63 62 60 58 56 56 55 54 51 49 50 48 47 51 52 52 52 51 52 52 52 52 52 53 54 55 55 57 57 58 60 61 62 64 66 69
59 59 59 58 58 56 55 54 56 57 58 59 59 58 55 55 54 53 51 49 47 48 51 53 54 54 54 53 52 52 52 53 55 57 59 60 62 64 65 66 68 70 71
57 56 57 59 60 60 59 60 59 59 60 60 57 55 54 55 55 55 54 54 55 54 53 53 53 52 52 53 54 55 57 58 60 61 62 63 64 65 66 67 67 66 64
55 53 53 53 54 54 54 56 58 59 58 56 53 52 51 51 51 52 53 54 55 55 56 55 56 56 57 57 58 59 61 62 63 64 65 64 63 62 60 57 54 51 50
56 56 56 57 57 56 55 54 53 52 52 52 52 52 52 53 53 53 54 54 54 56 57 58 59 60 61 62 63 64 64 65 64 62 59 56 53 51 49 47 47 48 49
Wind_Direction
237 237 240 245 247 254 253 259 269 278 273 272 270 272 276 277 263 260 262 260 254 243 241 243 246 252 255 255 258 261 262 267 270 266 265 258 256 257 256 259 257 253 258
241 244 242 246 245 245 252 252 255 263 271 268 272 271 269 269 274 274 270 261 252 255 260 264 262 263 265 258 258 265 265 266 265 262 256 257 258 258 261 260 261 260 263
242 245 244 248 249 246 248 250 257 260 262 267 271 272 275 279 280 274 270 269 271 274 275 275 275 273 269 268 269 268 270 269 269 269 261 259 264 266 267 267 268 268 268
251 246 245 246 251 254 256 257 259 264 269 267 268 275 278 278 279 280 280 277 273 269 269 271 273 275 276 275 273 273 271 270 269 269 270 267 269 267 269 272 274 273 274
249 239 241 242 249 252 255 261 262 262 264 267 269 271 273 274 277 278 277 274 274 273 273 272 271 270 269 272 275 275 276 277 277 278 278 278 276 276 276 273 273 273 272
252 244 244 249 245 254 256 253 258 261 259 259 261 263 268 270 267 267 272 274 271 269 268 268 268 268 269 272 273 273 273 273 276 280 282 283 283 280 277 275 272 270 270
245 251 255 257 260 257 259 259 258 259 263 266 269 270 267 264 262 261 263 266 271 270 269 269 268 269 267 268 271 271 272 275 276 276 277 279 279 279 278 280 279 277 276
254 254 253 256 260 255 255 263 266 265 267 269 270 270 270 269 267 267 272 279 280 278 275 269 269 267 266 267 267 269 271 272 274 276 280 280 280 280 283 281 280 280 281
253 256 255 254 262 265 262 261 259 261 264 266 262 262 264 265 268 269 269 273 277 276 277 273 272 270 268 267 269 273 275 275 277 277 277 278 281 279 276 277 277 277 280
253 255 252 256 260 263 263 265 268 271 273 273 271 265 255 254 256 258 257 262 267 271 272 271 271 268 268 270 271 273 276 272 270 271 274 275 278 279 279 280 280 276 275
242 243 247 255 258 258 260 261 263 263 266 271 276 277 278 278 275 266 268 266 266 267 267 267 267 268 267 272 273 271 270 275 272 266 271 273 278 278 274 277 277 277 276
238 247 256 263 265 263 261 263 263 265 268 270 271 273 274 276 278 277 276 277 278 280 280 280 280 278 271 270 276 272 284 271 277 275 271 275 271 269 278 273 274 271 271
259 260 262 265 272 275 269 267 268 272 273 275 276 279 280 280 279 280 281 283 284 284 283 282 280 279 278 276 275 276 278 273 278 276 275 278 278 276 273 276 275 279 273
261 264 271 277 276 279 277 275 277 277 277 279 281 281 283 283 283 284 285 284 284 284 283 283 282 282 282 280 278 277 275 281 276 276 279 278 281 281 277 279 278 276 277
274 274 277 279 278 279 279 277 276 276 277 277 278 279 280 280 281 281 281 283 283 283 283 283 283 283 283 282 281 282 281 281 284 282 278 276 274 278 280 282 283 284 283
274 274 276 276 276 277 278 278 278 278 280 281 281 280 280 281 281 281 281 282 283 283 283 283 283 283 284 284 283 283 284 282 282 281 283 281 282 277 275 274 277 275 278
275 275 274 274 275 276 277 277 279 280 281 283 284 285 287 287 287 287 287 286 286 286 286 286 286 287 287 288 288 289 287 286 282 277 281 282 281 278 274 270 269 271 271
279 279 280 280 279 279 279 279 280 281 282 283 284 284 284 285 285 286 287 287 287 286 286 286 286 286 287 287 287 287 283 281 282 283 282 279 276 275 275 279 281 282 283
282 283 284 283 281 281 281 281 282 283 283 283 283 284 286 286 286 285 286 286 285 284 283 284 285 285 284 281 278 279 279 278 277 277 278 278 280 282 283 283 285 288 289
279 278 278 279 279 279 279 279 280 281 282 284 285 286 287 288 289 291 292 289 287 286 284 279 282 279 278 278 277 279 281 282 282 282 281 281 282 283 284 285 287 289 289
277 278 279 280 281 282 282 283 284 285 286 287 288 288 285 286 289 290 289 288 284 285 287 278 274 275 276 279 279 281 280 280 281 282 282 282 282 283 285 286 287 289 290
279 282 283 284 284 284 284 284 284 284 284 285 286 287 281 279 284 284 290 291 284 284 284 280 278 278 279 279 281 282 284 284 284 284 285 287 288 289 289 290 291 292 293
283 282 282 281 281 280 281 280 281 282 283 285 286 285 281 276 277 280 280 282 282 282 282 282 282 281 280 281 282 283 283 283 284 285 286 287 288 289 290 292 293 294 294
279 278 279 279 278 278 278 279 279 280 282 283 284 281 279 276 276 278 279 281 281 281 280 280 280 280 281 282 283 285 286 287 288 288 289 288 289 289 290 291 292 293 294
275 275 276 278 279 279 279 278 277 277 278 278 278 278 278 279 279 279 280 281 281 282 282 282 283 284 286 287 288 289 290 290 289 289 288 289 290 290 291 292 293 294 295
276 276 276 277 278 278 278 277 277 277 276 275 276 277 278 279 279 279 279 280 281 282 283 284 286 287 287 288 289 288 288 288 288 288 289 289 289 290 291 292 294 297 299